ON7CFI Weather Reports


Display with metric or nautical units.
time (UTC)temp
F
wind
direction
speed
MPH
gust
MPH
rain 1hr
in
rain 24hr
in
rain mn
in
humidity
%
barometer
mb
20260505181503 51 81 1.0 4.0 0.01 0.18 0.17 94 1008.1
20260505181003 51 94 1.0 3.0 0.01 0.18 0.17 94 1008.1
20260505180503 51 81 1.0 6.0 0.01 0.18 0.17 94 1008.2
20260505180003 51 77 1.0 6.0 0.01 0.18 0.17 94 1008.1
20260505175503 51 80 2.0 4.0 0.00 0.17 0.16 94 1008.1
20260505175003 51 85 2.0 6.0 0.00 0.17 0.16 94 1008.2
20260505174503 51 88 2.0 6.0 0.00 0.17 0.16 94 1008.2
20260505174003 51 79 2.0 5.0 0.00 0.17 0.16 93 1008.1
20260505173503 51 78 2.0 5.0 0.00 0.17 0.16 94 1008.3
20260505173003 51 88 2.0 7.0 0.00 0.17 0.16 94 1008.2
20260505172503 51 86 2.0 7.0 0.00 0.17 0.16 94 1008.2
20260505172003 51 86 2.0 4.0 0.00 0.17 0.16 94 1008.2
20260505171503 51 84 2.0 9.0 0.00 0.17 0.16 94 1008.1
20260505171003 51 82 2.0 9.0 0.00 0.17 0.16 94 1008.2
20260505170503 51 94 1.0 6.0 0.00 0.17 0.16 95 1008.2
20260505170003 51 80 2.0 5.0 0.00 0.17 0.16 95 1008.2
20260505165503 51 80 2.0 7.0 0.00 0.17 0.16 94 1008.2
20260505165003 51 91 2.0 7.0 0.00 0.17 0.16 95 1008.1
20260505164503 51 84 3.0 10.0 0.00 0.17 0.16 95 1008.2
20260505164003 51 77 2.0 10.0 0.00 0.17 0.16 95 1008.2
20260505163503 51 81 1.0 7.0 0.00 0.17 0.16 95 1008.2
20260505163003 51 78 2.0 6.0 0.00 0.17 0.16 95 1008.1
20260505162503 51 76 2.0 6.0 0.00 0.17 0.16 95 1008.1
20260505162003 51 78 2.0 6.0 0.00 0.17 0.16 95 1008.2
20260505161503 51 79 2.0 6.0 0.00 0.17 0.16 95 1008.3
20260505161004 51 78 2.0 5.0 0.00 0.17 0.16 95 1008.3
20260505160503 51 75 2.0 5.0 0.00 0.17 0.16 95 1008.2
20260505153003 52 70 2.0 8.0 0.00 0.17 0.16 95 1008.4
20260505152717 52 77 2.0 8.0 0.00 0.17 0.16 95 1008.4
20260505152218 52 79 2.0 7.0 0.00 0.17 0.16 95 1008.3
20260505151503 52 70 2.0 7.0 0.00 0.17 0.16 95 1008.3
20260505151003 52 75 2.0 6.0 0.00 0.17 0.16 95 1008.4
20260505150503 52 79 2.0 6.0 0.00 0.17 0.16 95 1008.4
20260505140503 51 70 1.0 5.0 0.00 0.17 0.16 96 1008.7
20260505125003 51 80 2.0 9.0 0.00 0.17 0.16 97 1009.0
20260505124503 51 78 3.0 9.0 0.00 0.17 0.16 97 1009.0
20260505124003 51 80 3.0 9.0 0.00 0.17 0.16 97 1009.0
20260505123503 51 73 2.0 8.0 0.00 0.17 0.16 97 1009.0
20260505123003 51 69 3.0 8.0 0.00 0.17 0.16 97 1009.1
20260505122503 51 72 2.0 8.0 0.00 0.17 0.16 97 1009.1
20260505122003 51 72 2.0 8.0 0.00 0.17 0.16 97 1009.2
20260505121503 51 69 2.0 7.0 0.00 0.17 0.16 97 1009.2
20260505121217 51 67 2.0 7.0 0.00 0.17 0.16 97 1009.2
20260505120503 51 63 2.0 7.0 0.00 0.17 0.16 97 1009.2
20260505120004 51 67 2.0 7.0 0.00 0.17 0.16 97 1009.3
20260505115503 51 67 2.0 6.0 0.00 0.17 0.16 97 1009.3
20260505115003 51 67 2.0 6.0 0.00 0.17 0.16 97 1009.3
20260505114503 51 62 2.0 8.0 0.00 0.17 0.16 97 1009.4
20260505114003 51 53 2.0 8.0 0.00 0.17 0.16 97 1009.5
20260505113503 51 59 2.0 7.0 0.00 0.17 0.16 97 1009.2
20260505113004 51 51 2.0 6.0 0.00 0.17 0.16 97 1009.2
20260505112503 51 19 1.0 5.0 0.00 0.17 0.16 97 1009.3
20260505112003 51 58 2.0 6.0 0.00 0.17 0.16 97 1009.4
20260505111717 51 67 2.0 8.0 0.00 0.17 0.16 97 1009.3
20260505111003 51 62 2.0 8.0 0.00 0.17 0.16 97 1009.4
20260505110503 51 59 2.0 5.0 0.00 0.17 0.16 97 1009.4
20260505102003 51 67 1.0 7.0 0.01 0.17 0.16 97 1009.5
20260505101503 51 76 2.0 5.0 0.01 0.17 0.16 97 1009.4
20260505101003 51 71 3.0 9.0 0.01 0.17 0.16 97 1009.5
20260505100717 51 69 3.0 9.0 0.01 0.17 0.16 97 1009.5
20260505100004 52 73 2.0 7.0 0.01 0.17 0.16 97 1009.4
20260505095503 52 66 2.0 6.0 0.01 0.17 0.16 97 1009.4
20260505095003 52 61 2.0 5.0 0.01 0.17 0.16 97 1009.4
20260505094503 52 62 2.0 5.0 0.02 0.17 0.16 97 1009.5
20260505094218 52 68 2.0 8.0 0.02 0.17 0.16 97 1009.5
20260505093503 52 71 2.0 8.0 0.02 0.17 0.16 97 1009.5
20260505093003 52 60 1.0 4.0 0.02 0.17 0.16 98 1009.5
20260505092503 52 54 1.0 4.0 0.02 0.17 0.16 97 1009.6
20260505092003 51 61 2.0 6.0 0.01 0.17 0.15 97 1009.6
20260505091503 51 72 2.0 6.0 0.01 0.17 0.15 97 1009.6
20260505091003 51 76 2.0 6.0 0.01 0.17 0.15 97 1009.6
20260505090716 52 73 2.0 6.0 0.01 0.17 0.15 97 1009.7
20260505090003 52 69 2.0 6.0 0.01 0.17 0.15 98 1009.6
20260505085503 52 66 1.0 6.0 0.01 0.17 0.15 98 1009.6
20260505085003 52 62 1.0 4.0 0.01 0.17 0.15 98 1009.6
20260505084503 52 67 2.0 6.0 0.00 0.16 0.14 97 1009.6
20260505084003 52 72 2.0 6.0 0.00 0.16 0.14 97 1009.6
20260505083503 52 71 2.0 6.0 0.00 0.16 0.14 97 1009.7
20260505083003 52 67 2.0 6.0 0.00 0.16 0.14 98 1009.7
20260505082503 52 69 1.0 5.0 0.00 0.16 0.14 98 1009.7
20260505082003 52 71 2.0 5.0 0.00 0.16 0.14 98 1009.7
20260505081503 52 65 2.0 5.0 0.00 0.16 0.14 98 1009.7
20260505081004 52 56 1.0 5.0 0.00 0.16 0.14 97 1009.7
20260505080503 52 63 1.0 5.0 0.00 0.16 0.14 98 1009.6
20260505080003 52 63 2.0 5.0 0.00 0.16 0.14 97 1009.7
20260505075503 52 60 2.0 5.0 0.00 0.16 0.14 97 1009.7
20260505075003 52 56 1.0 5.0 0.00 0.16 0.14 98 1009.7
20260505074509 52 59 2.0 7.0 0.00 0.16 0.14 97 1009.7
20260505074003 52 60 2.0 8.0 0.00 0.16 0.14 97 1009.7
20260505073718 52 51 2.0 8.0 0.00 0.16 0.14 97 1009.7
20260505073003 52 70 1.0 4.0 0.00 0.16 0.14 98 1009.7
20260505072503 52 78 1.0 3.0 0.00 0.16 0.14 97 1009.7
20260505072003 52 50 1.0 4.0 0.01 0.16 0.14 98 1009.6
20260505071503 52 68 2.0 6.0 0.01 0.16 0.14 97 1009.7
20260505071217 52 56 2.0 6.0 0.02 0.16 0.14 97 1009.6
20260505070503 52 62 3.0 7.0 0.02 0.16 0.14 97 1009.7
20260505070004 52 72 3.0 8.0 0.02 0.16 0.14 97 1009.7
20260505065504 52 75 2.0 8.0 0.02 0.16 0.14 97 1009.5
20260505065003 52 74 2.0 8.0 0.02 0.16 0.14 97 1009.5
20260505064503 52 74 3.0 8.0 0.02 0.16 0.14 97 1009.7
20260505064003 52 68 2.0 8.0 0.02 0.16 0.14 97 1009.8
20260505063503 53 41 2.0 6.0 0.02 0.16 0.14 97 1009.8
20260505063003 53 48 2.0 6.0 0.02 0.16 0.14 97 1009.7
20260505062503 53 61 1.0 3.0 0.02 0.16 0.14 97 1009.7
20260505062003 53 74 1.0 3.0 0.02 0.15 0.13 97 1009.7
20260505061717 53 87 0.0 2.0 0.02 0.15 0.13 97 1009.8
20260505061003 53 88 0.0 2.0 0.02 0.14 0.13 97 1009.8
20260505060503 53 78 1.0 4.0 0.02 0.14 0.13 97 1009.7
20260505060216 53 70 1.0 4.0 0.02 0.14 0.13 97 1009.7
20260505055717 53 70 2.0 4.0 0.03 0.14 0.13 97 1009.8
20260505055003 53 70 2.0 5.0 0.03 0.14 0.13 97 1009.8
20260505054503 53 61 1.0 5.0 0.04 0.14 0.13 97 1009.7
20260505054216 53 55 2.0 5.0 0.03 0.13 0.13 97 1009.7
20260505053503 53 73 1.0 6.0 0.03 0.13 0.12 97 1009.7
20260505053005 53 82 2.0 6.0 0.04 0.13 0.12 97 1009.8
20260505052503 53 85 1.0 6.0 0.04 0.13 0.12 97 1009.7
20260505052003 53 81 1.0 6.0 0.04 0.13 0.12 97 1009.7
20260505051503 53 31 1.0 4.0 0.03 0.13 0.11 97 1009.7
20260505051003 53 14 1.0 4.0 0.03 0.13 0.11 97 1009.8
20260505050717 53 337 1.0 4.0 0.03 0.13 0.11 97 1009.7
20260505050218 54 28 1.0 4.0 0.02 0.12 0.10 97 1009.7
20260505041503 54 76 2.0 4.0 0.00 0.09 0.08 97 1009.8
20260505041003 54 78 2.0 7.0 0.00 0.09 0.08 97 1009.8
20260505040717 54 67 2.0 7.0 0.00 0.09 0.08 97 1009.8
20260505040004 55 325 1.0 4.0 0.00 0.09 0.08 96 1009.7
20260505035503 55 327 1.0 5.0 0.00 0.09 0.08 96 1009.7
20260505035003 55 335 1.0 5.0 0.00 0.09 0.08 96 1009.7
20260505034503 55 339 1.0 4.0 0.00 0.09 0.08 97 1009.7
20260505034005 55 36 1.0 4.0 0.00 0.09 0.08 97 1009.7
20260505033716 55 59 1.0 4.0 0.00 0.09 0.08 97 1009.7
20260505033217 55 78 1.0 4.0 0.00 0.09 0.08 97 1009.8
20260505032504 55 67 1.0 4.0 0.00 0.09 0.08 97 1009.7
20260505032003 55 68 2.0 6.0 0.00 0.09 0.08 96 1009.7
20260505031718 55 67 2.0 6.0 0.00 0.09 0.08 97 1009.9
20260505031217 55 66 1.0 4.0 0.00 0.09 0.08 97 1009.8
20260505030503 55 70 1.0 4.0 0.00 0.09 0.08 97 1009.9
20260505030217 55 73 1.0 4.0 0.00 0.09 0.08 97 1009.9
20260505025503 55 63 1.0 3.0 0.02 0.09 0.08 97 1010.0
20260505025003 55 73 1.0 4.0 0.02 0.09 0.08 97 1010.1
20260505024503 56 71 2.0 4.0 0.02 0.09 0.08 97 1010.0
20260505024003 55 70 1.0 4.0 0.05 0.09 0.08 97 1010.0
20260505023503 56 80 1.0 4.0 0.06 0.09 0.08 97 1010.0
20260505023003 56 77 1.0 5.0 0.06 0.09 0.08 97 1010.0
20260505022503 56 61 1.0 5.0 0.07 0.09 0.08 97 1010.0
20260505022003 56 68 1.0 4.0 0.07 0.09 0.08 97 1010.0
20260505021503 56 80 1.0 4.0 0.07 0.09 0.08 97 1010.1
20260505021003 56 81 1.0 3.0 0.07 0.09 0.08 97 1010.1
20260505020504 56 82 1.0 3.0 0.07 0.09 0.08 97 1010.1
20260505020003 56 103 0.0 3.0 0.06 0.09 0.07 97 1010.0
20260505015503 56 186 0.0 1.0 0.06 0.08 0.06 97 1010.1
20260505015003 56 0 0.0 0.0 0.05 0.07 0.06 97 1010.0
20260505014503 56 186 0.0 1.0 0.05 0.07 0.06 97 1010.1
20260505014003 56 186 0.0 2.0 0.02 0.05 0.03 97 1010.1
20260505013503 56 186 0.0 2.0 0.01 0.03 0.02 97 1010.1
20260505013003 56 186 0.0 1.0 0.01 0.03 0.02 97 1010.1
20260505012503 56 0 0.0 0.0 0.00 0.02 0.01 97 1010.1
20260505012217 56 0 0.0 0.0 0.00 0.02 0.01 97 1010.1
20260505011718 56 0 0.0 0.0 0.00 0.02 0.01 97 1010.2
20260505011003 56 186 0.0 1.0 0.00 0.02 0.01 97 1010.2
20260505010503 56 186 0.0 1.0 0.00 0.02 0.01 97 1010.3
20260505010003 55 186 0.0 1.0 0.00 0.02 0.01 97 1010.4
20260505005503 55 0 0.0 0.0 0.00 0.02 0.01 97 1010.4
20260505005004 55 0 0.0 0.0 0.00 0.02 0.01 97 1010.4
20260505004503 55 0 0.0 0.0 0.00 0.02 0.01 97 1010.5
20260505004003 55 0 0.0 0.0 0.00 0.02 0.01 96 1010.5
20260505003503 55 0 0.0 0.0 0.00 0.02 0.01 96 1010.6
20260505003218 55 0 0.0 0.0 0.00 0.02 0.01 96 1010.6
20260505002717 55 0 0.0 0.0 0.00 0.02 0.01 96 1010.5
20260505002003 55 0 0.0 0.0 0.00 0.02 0.01 96 1010.5
20260505001503 55 0 0.0 0.0 0.00 0.02 0.01 96 1010.5
20260505001004 55 0 0.0 0.0 0.00 0.02 0.01 96 1010.6
20260505000503 55 0 0.0 0.0 0.00 0.02 0.01 96 1010.7
20260505000003 55 0 0.0 0.0 0.00 0.02 0.01 96 1010.8
20260504235503 55 0 0.0 0.0 0.00 0.02 0.01 96 1010.8
20260504235003 55 0 0.0 0.0 0.00 0.02 0.01 96 1010.7
20260504234503 55 0 0.0 0.0 0.00 0.02 0.01 96 1010.8
20260504234218 55 0 0.0 0.0 0.00 0.02 0.01 96 1010.9
20260504233503 55 0 0.0 0.0 0.00 0.02 0.01 96 1010.8
20260504233003 55 0 0.0 0.0 0.00 0.02 0.01 96 1010.8
20260504232503 55 0 0.0 0.0 0.01 0.03 0.01 96 1010.8
20260504232218 56 0 0.0 0.0 0.01 0.03 0.01 96 1010.8
20260504231503 56 0 0.0 0.0 0.01 0.03 0.01 96 1010.9
20260504231003 56 0 0.0 0.0 0.01 0.03 0.01 96 1010.9
20260504230503 56 0 0.0 0.0 0.01 0.03 0.01 96 1011.0
20260504230003 56 0 0.0 0.0 0.01 0.03 0.01 96 1011.1
20260504225503 56 0 0.0 0.0 0.01 0.04 0.01 96 1011.1
20260504225003 56 0 0.0 0.0 0.01 0.04 0.01 96 1011.2
20260504224503 56 0 0.0 0.0 0.01 0.04 0.01 96 1011.3
20260504224003 55 0 0.0 0.0 0.01 0.04 0.01 96 1011.3
20260504223503 55 0 0.0 0.0 0.01 0.04 0.01 96 1011.3
20260504223003 55 0 0.0 0.0 0.01 0.04 0.01 96 1011.3
20260504222503 56 0 0.0 0.0 0.00 0.03 0.00 96 1011.4
20260504222004 56 0 0.0 0.0 0.01 0.03 0.00 96 1011.5
20260504221503 56 0 0.0 0.0 0.01 0.03 0.00 96 1011.6
20260504221217 55 0 0.0 0.0 0.01 0.03 0.00 96 1011.6
20260504220503 55 0 0.0 0.0 0.01 0.03 0.00 95 1011.7
20260504220003 55 0 0.0 0.0 0.01 0.03 0.00 95 1011.7
20260504215503 55 0 0.0 0.0 0.01 0.03 0.03 95 1011.7
20260504215003 55 0 0.0 0.0 0.01 0.03 0.03 95 1011.8
20260504214504 55 0 0.0 0.0 0.02 0.03 0.03 94 1011.8
20260504214004 56 0 0.0 0.0 0.02 0.03 0.03 94 1011.8
20260504213503 56 0 0.0 0.0 0.02 0.03 0.03 94 1011.8
20260504213003 56 0 0.0 0.0 0.02 0.03 0.03 94 1011.9
20260504212503 56 0 0.0 0.0 0.02 0.03 0.03 94 1011.9
20260504212003 56 0 0.0 0.0 0.01 0.02 0.02 94 1011.9
20260504211503 56 0 0.0 0.0 0.01 0.02 0.02 94 1011.9
20260504211003 56 0 0.0 0.0 0.01 0.02 0.02 94 1011.9
20260504210503 56 0 0.0 0.0 0.01 0.02 0.02 94 1011.9
20260504210223 56 0 0.0 0.0 0.01 0.02 0.02 94 1011.9
20260504205503 56 0 0.0 0.0 0.01 0.02 0.02 94 1012.1
20260504205003 56 0 0.0 0.0 0.01 0.02 0.02 94 1011.9
20260504204718 56 0 0.0 0.0 0.00 0.02 0.02 94 1012.0
20260504204003 56 0 0.0 0.0 0.00 0.02 0.02 93 1012.1
20260504203503 56 0 0.0 0.0 0.00 0.02 0.02 93 1012.0
20260504203003 56 0 0.0 0.0 0.00 0.02 0.02 93 1012.1
20260504202503 56 0 0.0 0.0 0.00 0.02 0.02 93 1012.1
20260504202003 56 0 0.0 0.0 0.00 0.02 0.02 93 1012.0
20260504201718 56 0 0.0 0.0 0.00 0.02 0.02 93 1012.1
20260504201003 56 0 0.0 0.0 0.00 0.02 0.02 93 1012.1
20260504200503 56 0 0.0 0.0 0.00 0.02 0.02 93 1012.1
20260504200003 56 0 0.0 0.0 0.00 0.02 0.02 92 1012.1
20260504195503 56 0 0.0 0.0 0.00 0.02 0.02 92 1012.1
20260504195003 57 0 0.0 0.0 0.00 0.02 0.02 92 1012.0
20260504194503 57 0 0.0 0.0 0.00 0.02 0.02 92 1011.9
20260504194003 57 0 0.0 0.0 0.00 0.02 0.02 91 1011.9
20260504193504 57 0 0.0 0.0 0.00 0.02 0.02 92 1011.9
20260504193003 57 0 0.0 0.0 0.00 0.02 0.02 92 1011.8
20260504192503 57 0 0.0 0.0 0.00 0.02 0.02 91 1011.7
20260504192003 57 0 0.0 0.0 0.00 0.02 0.02 91 1011.7
20260504191503 57 0 0.0 0.0 0.00 0.02 0.02 90 1011.7
20260504191218 57 0 0.0 0.0 0.00 0.02 0.02 90 1011.7
20260504190503 58 0 0.0 0.0 0.00 0.02 0.02 89 1011.6
20260504190003 58 0 0.0 0.0 0.00 0.02 0.02 89 1011.7
20260504185503 58 186 0.0 1.0 0.00 0.02 0.02 89 1011.6
20260504185003 58 186 0.0 1.0 0.00 0.02 0.02 88 1011.7
20260504184503 58 0 0.0 0.0 0.00 0.02 0.02 87 1011.6
20260504184003 58 0 0.0 0.0 0.00 0.02 0.02 87 1011.6
20260504183503 59 186 0.0 1.0 0.00 0.02 0.02 86 1011.7
20260504183218 59 186 0.0 1.0 0.00 0.02 0.02 86 1011.6
20260504182503 59 186 0.0 1.0 0.00 0.02 0.02 86 1011.6
20260504182003 59 186 0.0 2.0 0.00 0.02 0.02 86 1011.6